GW7057 Weather Reports


time (UTC)temp
C
wind
direction
speed
KPH
gust
KPH
rain 1hr
cm
rain 24hr
cm
rain mn
cm
humidity
%
barometer
mb
20260504212537 20 180 4.8 19.3 0.00 0.00 0.00 32 1005.2
20260504212034 20 277 14.5 19.3 0.00 0.00 0.00 32 1005.3
20260504211531 20 239 12.9 14.5 0.00 0.00 0.00 32 1005.2
20260504211028 20 247 6.4 25.7 0.00 0.00 0.00 32 1005.3
20260504210525 20 180 6.4 14.5 0.00 0.00 0.00 33 1005.3
20260504210022 20 217 14.5 14.5 0.00 0.00 0.00 32 1005.1
20260504205520 21 180 4.8 19.3 0.00 0.00 0.00 30 1005.3
20260504205017 20 222 6.4 20.9 0.00 0.00 0.00 30 1005.1
20260504204515 20 244 17.7 24.1 0.00 0.00 0.00 30 1005.3
20260504204014 21 180 4.8 12.9 0.00 0.00 0.00 31 1005.1
20260504203512 21 219 8.0 9.7 0.00 0.00 0.00 30 1005.2
20260504203009 20 228 4.8 14.5 0.00 0.00 0.00 31 1005.2
20260504202504 20 199 11.3 19.3 0.00 0.00 0.00 31 1005.3
20260504202001 20 227 14.5 14.5 0.00 0.00 0.00 32 1005.3
20260504201458 20 136 3.2 17.7 0.00 0.00 0.00 32 1005.1
20260504200955 20 228 12.9 17.7 0.00 0.00 0.00 30 1005.1
20260504200452 20 231 9.7 19.3 0.00 0.00 0.00 30 1005.5
20260504195949 20 226 27.4 27.4 0.00 0.00 0.00 29 1005.4
20260504195444 20 131 6.4 24.1 0.00 0.00 0.00 32 1005.2
20260504194941 20 212 9.7 29.0 0.00 0.00 0.00 30 1005.5
20260504194438 20 229 9.7 16.1 0.00 0.00 0.00 30 1005.3
20260504193934 20 250 14.5 16.1 0.00 0.00 0.00 29 1005.5
20260504193431 20 221 4.8 24.1 0.00 0.00 0.00 30 1005.4
20260504192930 21 233 9.7 33.8 0.00 0.00 0.00 29 1005.3
20260504192426 20 228 6.4 17.7 0.00 0.00 0.00 29 1005.5
20260504191926 20 226 6.4 20.9 0.00 0.00 0.00 32 1005.5
20260504191423 20 246 12.9 20.9 0.00 0.00 0.00 29 1005.6
20260504190918 20 239 4.8 22.5 0.00 0.00 0.00 29 1005.7
20260504190414 20 297 9.7 20.9 0.00 0.00 0.00 29 1005.5
20260504185911 20 225 16.1 29.0 0.00 0.00 0.00 30 1005.6
20260504185408 20 169 11.3 17.7 0.00 0.00 0.00 30 1005.6
20260504184904 19 215 12.9 25.7 0.00 0.00 0.00 31 1005.7
20260504184400 20 241 14.5 20.9 0.00 0.00 0.00 29 1005.9
20260504183856 20 357 6.4 19.3 0.00 0.00 0.00 30 1006.1
20260504183354 20 236 9.7 25.7 0.00 0.00 0.00 31 1005.9
20260504182851 19 169 9.7 24.1 0.00 0.00 0.00 30 1006.1
20260504182348 19 230 29.0 30.6 0.00 0.00 0.00 29 1005.8
20260504181845 20 301 9.7 22.5 0.00 0.00 0.00 29 1006.2
20260504181342 19 233 32.2 40.2 0.00 0.00 0.00 29 1006.1
20260504180841 19 247 17.7 29.0 0.00 0.00 0.00 29 1005.9
20260504180339 19 237 11.3 24.1 0.00 0.00 0.00 29 1005.9
20260504175837 19 254 12.9 32.2 0.00 0.00 0.00 28 1006.1
20260504175333 20 224 11.3 17.7 0.00 0.00 0.00 28 1006.1
20260504174832 19 218 8.0 22.5 0.00 0.00 0.00 32 1005.9
20260504174329 18 251 12.9 24.1 0.00 0.00 0.00 28 1006.4
20260504173826 19 222 19.3 22.5 0.00 0.00 0.00 29 1006.6
20260504173322 18 166 6.4 24.1 0.00 0.00 0.00 31 1006.5
20260504172820 18 207 6.4 17.7 0.00 0.00 0.00 30 1006.4
20260504172316 19 206 3.2 20.9 0.00 0.00 0.00 32 1006.6
20260504171812 18 167 4.8 24.1 0.00 0.00 0.00 34 1006.7
20260504171309 18 229 16.1 27.4 0.00 0.00 0.00 30 1006.6
20260504170806 18 224 3.2 22.5 0.00 0.00 0.00 32 1006.5
20260504170303 18 237 19.3 30.6 0.00 0.00 0.00 29 1006.4
20260504160221 17 216 12.9 30.6 0.00 0.00 0.00 33 1007.3
20260504151150 16 200 9.7 17.7 0.00 0.00 0.00 34 1007.6
20260504150647 16 259 11.3 20.9 0.00 0.00 0.00 34 1007.8
20260504150143 16 226 11.3 27.4 0.00 0.00 0.00 35 1007.8
20260504141113 15 211 3.2 12.9 0.00 0.00 0.00 37 1007.9
20260504140609 15 216 9.7 22.5 0.00 0.00 0.00 36 1008.1
20260504140105 15 315 8.0 17.7 0.00 0.00 0.00 37 1008.4
20260504130533 13 216 9.7 14.5 0.00 0.00 0.00 40 1008.5
20260504110421 8 226 6.4 24.1 0.00 0.00 0.00 50 1008.8
20260504100337 6 197 3.2 6.4 0.00 0.00 0.00 59 1008.5
20260504081731 6 227 0.0 4.8 0.00 0.00 0.00 58 1008.0
20260504081227 6 191 3.2 3.2 0.00 0.00 0.00 58 1008.1
20260504080724 6 131 1.6 3.2 0.00 0.00 0.00 57 1008.2
20260504080221 6 101 0.0 1.6 0.00 0.00 0.00 56 1008.2
20260504070148 7 213 6.4 11.3 0.00 0.00 0.00 48 1007.9
20260504060109 6 81 0.0 3.2 0.00 0.00 0.00 57 1008.1
20260504050537 6 180 0.0 3.2 0.00 0.00 0.00 51 1008.2
20260504045531 5 192 1.6 3.2 0.00 0.00 0.00 51 1008.5
20260504045026 5 135 0.0 3.2 0.00 0.00 0.00 53 1008.6
20260504044524 5 158 0.0 3.2 0.00 0.00 0.00 52 1008.4
20260504044020 5 98 3.2 3.2 0.00 0.00 0.00 53 1008.6
20260504043517 5 61 0.0 1.6 0.00 0.00 0.00 54 1008.5
20260504043015 5 202 0.0 1.6 0.00 0.00 0.00 54 1008.5
20260504042512 6 31 0.0 1.6 0.00 0.00 0.00 53 1008.5
20260504042009 6 89 0.0 6.4 0.00 0.00 0.00 51 1008.5
20260504041504 6 291 1.6 3.2 0.00 0.00 0.00 52 1008.3
20260504041000 5 253 0.0 3.2 0.00 0.00 0.00 52 1008.3
20260504040458 6 306 0.0 3.2 0.00 0.00 0.00 54 1008.0
20260504035954 6 116 0.0 1.6 0.00 0.00 0.00 54 1008.1
20260504035452 6 336 0.0 3.2 0.00 0.00 0.00 50 1008.2
20260504034948 6 36 0.0 3.2 0.00 0.00 0.00 49 1008.2
20260504034446 6 54 1.6 3.2 0.00 0.00 0.00 50 1008.2
20260504033942 6 203 3.2 6.4 0.00 0.00 0.00 48 1008.2
20260504033440 6 215 3.2 3.2 0.00 0.00 0.00 49 1008.1
20260504032937 6 283 0.0 8.0 0.00 0.00 0.00 49 1008.1
20260504032434 6 223 3.2 4.8 0.00 0.00 0.00 46 1008.3
20260504031931 6 241 3.2 4.8 0.00 0.00 0.00 47 1008.2
20260504031428 6 296 3.2 4.8 0.00 0.00 0.00 47 1007.9
20260504030925 6 204 3.2 4.8 0.00 0.00 0.00 46 1008.0
20260504030422 6 289 1.6 1.6 0.00 0.00 0.00 47 1008.1
20260504025918 6 143 3.2 3.2 0.00 0.00 0.00 44 1008.1
20260504025415 6 227 0.0 3.2 0.00 0.00 0.00 45 1008.0
20260504024912 6 168 1.6 3.2 0.00 0.00 0.00 46 1007.9
20260504024409 6 269 0.0 4.8 0.00 0.00 0.00 46 1008.0
20260504023906 6 191 3.2 3.2 0.00 0.00 0.00 47 1007.9
20260504023402 6 268 0.0 3.2 0.00 0.00 0.00 48 1007.8
20260504022857 6 286 0.0 4.8 0.00 0.00 0.00 52 1007.8
20260504022354 6 299 3.2 3.2 0.00 0.00 0.00 49 1007.9
20260504021850 6 235 0.0 3.2 0.00 0.00 0.00 49 1007.9
20260504021348 6 252 3.2 3.2 0.00 0.00 0.00 51 1007.7
20260504020845 6 178 0.0 3.2 0.00 0.00 0.00 52 1007.8
20260504020342 6 246 3.2 3.2 0.00 0.00 0.00 49 1007.5
20260504015838 6 196 3.2 6.4 0.00 0.00 0.00 49 1007.6
20260504015334 6 207 1.6 3.2 0.00 0.00 0.00 51 1007.7
20260504014830 6 189 1.6 3.2 0.00 0.00 0.00 51 1007.7
20260504014326 6 44 0.0 3.2 0.00 0.00 0.00 52 1007.7
20260504013824 5 176 1.6 3.2 0.00 0.00 0.00 54 1007.4
20260504013322 5 134 0.0 3.2 0.00 0.00 0.00 57 1007.5
20260504012818 5 145 0.0 3.2 0.00 0.00 0.00 57 1007.6
20260504012316 5 124 0.0 3.2 0.00 0.00 0.00 58 1007.4
20260504011814 5 135 0.0 3.2 0.00 0.00 0.00 57 1007.3
20260504011310 5 55 0.0 3.2 0.00 0.00 0.00 58 1007.3
20260504010806 5 172 0.0 3.2 0.00 0.00 0.00 59 1007.2
20260504010301 5 38 0.0 1.6 0.00 0.00 0.00 59 1007.0
20260504005758 5 209 0.0 3.2 0.00 0.00 0.00 59 1006.9
20260504005255 5 145 0.0 1.6 0.00 0.00 0.00 58 1006.8
20260504004753 6 160 0.0 3.2 0.00 0.00 0.00 55 1006.9
20260504004250 6 120 1.6 1.6 0.00 0.00 0.00 54 1006.8
20260504003746 6 119 1.6 3.2 0.00 0.00 0.00 53 1006.8
20260504003243 6 99 1.6 3.2 0.00 0.00 0.00 51 1006.7
20260504002740 6 108 0.0 3.2 0.00 0.00 0.00 50 1006.9
20260504002237 6 119 0.0 3.2 0.00 0.00 0.00 48 1006.9
20260504001735 7 95 0.0 3.2 0.00 0.00 0.00 46 1006.5
20260504001231 7 138 0.0 0.0 0.00 0.00 0.00 46 1006.6
20260504000728 7 118 0.0 0.0 0.00 0.00 0.00 45 1006.6
20260504000226 7 106 0.0 3.2 0.00 0.00 0.00 45 1006.5
20260503235724 7 121 1.6 1.6 0.00 0.00 0.00 45 1006.4
20260503235220 7 152 0.0 1.6 0.00 0.00 0.00 45 1006.4
20260503234718 8 124 0.0 1.6 0.00 0.00 0.00 45 1006.6
20260503234216 8 116 3.2 3.2 0.00 0.00 0.00 44 1006.4
20260503233713 8 130 0.0 3.2 0.00 0.00 0.00 43 1006.4
20260503233208 8 63 0.0 3.2 0.00 0.00 0.00 43 1006.2
20260503232705 8 213 3.2 3.2 0.00 0.00 0.00 41 1006.3
20260503232202 9 147 0.0 3.2 0.00 0.00 0.00 41 1006.3
20260503231701 9 103 0.0 4.8 0.00 0.00 0.00 39 1006.1
20260503231157 9 272 0.0 4.8 0.00 0.00 0.00 39 1006.1
20260503230653 10 2 4.8 9.7 0.00 0.00 0.00 38 1006.2
20260503230151 10 2 4.8 9.7 0.00 0.00 0.00 37 1005.9
20260503225648 10 185 3.2 11.3 0.00 0.00 0.00 36 1005.9
20260503225148 11 327 1.6 8.0 0.00 0.00 0.00 35 1005.9
20260503224645 11 255 3.2 9.7 0.00 0.00 0.00 35 1005.7
20260503224143 11 70 3.2 9.7 0.00 0.00 0.00 36 1005.8
20260503223641 11 49 0.0 19.3 0.00 0.00 0.00 36 1005.8
20260503223137 11 293 6.4 11.3 0.00 0.00 0.00 34 1005.8
20260503222635 10 289 3.2 8.0 0.00 0.00 0.00 36 1006.1
20260503222132 11 222 6.4 11.3 0.00 0.00 0.00 34 1005.8
20260503221631 11 65 6.4 9.7 0.00 0.00 0.00 34 1005.7
20260503221127 10 332 3.2 8.0 0.00 0.00 0.00 37 1005.6
20260503220624 10 235 6.4 9.7 0.00 0.00 0.00 37 1005.6
20260503220121 10 224 0.0 6.4 0.00 0.00 0.00 37 1005.7
20260503215618 10 358 3.2 14.5 0.00 0.00 0.00 34 1005.6
20260503215114 11 117 9.7 11.3 0.00 0.00 0.00 35 1005.2
20260503214613 11 179 4.8 9.7 0.00 0.00 0.00 35 1005.4
20260503214109 11 268 11.3 12.9 0.00 0.00 0.00 35 1005.3
20260503213608 10 147 4.8 6.4 0.00 0.00 0.00 36 1005.4
20260503213103 10 255 4.8 9.7 0.00 0.00 0.00 37 1005.4